Regional Weather Roundup
Issued by NWS Huntsville, AL

Home | Current Version | Previous Version | Text Only | Print | Product List | Glossary On
Versions: 1 2 3 4 5 6 7 8 9 10 11 12 13 14 15 16 17 18 19 20 21 22 23 24 25 26 27 28 29 30 31 32 33 34 35 36 37 38 39 40 41 42 43 44 45 46 47 48 49 50
000
ASUS44 KHUN 270510
RWRHUN

WEATHER ROUNDUP FOR THE TENNESSEE VALLEY
NATIONAL WEATHER SERVICE HUNTSVILLE AL
1200 AM CDT THU APR 27 2017

ALZ001>004-270600-
NORTHWEST ALABAMA

CITY           SKY/WX    TMP DP  RH WIND       PRES   REMARKS
COURTLAND HCN    N/A     73 N/A N/A S14         N/A
RUSSELLVILLE     N/A     72 N/A N/A MISG        N/A
SHOALS AIRPORT TSTM      66  62  87 NW9G29    29.68R FOG
SHOALS TVA RES   N/A     73 N/A N/A MISG        N/A
$$

ALZ005>007-016-270600-
NORTH CENTRAL ALABAMA

CITY           SKY/WX    TMP DP  RH WIND       PRES   REMARKS
CULLMAN AG STN   N/A     70 N/A N/A S5          N/A
DECATUR AP     CLOUDY    72  58  61 S16G25    29.69R
HUNTSVILLE AP  CLOUDY    73  59  61 S15       29.69R
MERIDIANVILLE  CLOUDY    72  54  53 S20G29    29.70R
REDSTONE ARSN  CLOUDY    71  59  64 S13       29.70R
VINEMONT AP    FAIR      70  55  60 S15G21    29.74R
$$

ALZ008>010-270600-
NORTHEAST ALABAMA

CITY           SKY/WX    TMP DP  RH WIND       PRES   REMARKS
ALBERTVILLE    CLOUDY    70  63  78 S12G25    29.72S
FORT PAYNE     CLOUDY    68  54  60 S3        29.74S
SCOTTSBORO AP  CLOUDY    72  57  60 SW7       29.73R
SCOTTSBORO HCN   N/A     72 N/A N/A MISG        N/A
VALLEY HEAD      N/A     68 N/A N/A MISG        N/A
$$

TNZ076-096-097-270600-
SOUTHEASTERN MIDDLE TENNESSEE

CITY           SKY/WX    TMP DP  RH WIND       PRES   REMARKS
TULLAHOMA      CLEAR     70  55  60 S12G25    29.70R
WINCHESTER     CLEAR     72  57  60 S10       29.71R
$$

...SURROUNDING SITES...

CITY           SKY/WX    TMP DP  RH WIND       PRES   REMARKS
ATLANTA        CLEAR     68  57  68 S9        29.81S
ANNISTON       CLOUDY    70  57  63 MISG      29.76R
BIRMINGHAM     CLOUDY    72  57  59 S10G18    29.75R
CHATTANOOGA    PTCLDY    72  57  59 S10       29.75R
CORINTH        RAIN      63  61  94 SE5       29.63F
DALTON         CLOUDY    70  59  68 SE8       29.77S
GADSDEN        CLOUDY    70  58  65 VRB7      29.74S
GOLDEN TRNGL   CLOUDY    66  61  82 S9        29.62R THUNDER
HALEYVILLE     LGT RAIN  69  60  73 S7        29.68F
JACKSON TN     TSTM      62  61  96 VRB7      29.58F
MEMPHIS        CLOUDY    62  61  96 S12       29.59R
NASHVILLE      MOCLDY    74  58  57 S20G32    29.62R
OXFORD MS      MOCLDY    59  59 100 S7        29.64R
ROME           CLOUDY    68  57  68 S5        29.76R
SAVANNAH       MOCLDY    63  63 100 S3        29.66R FOG
TUPELO         HVY RAIN  63  61  93 CALM      29.65F FOG
TUSCALOOSA     CLOUDY    72  62  71 S9        29.70R
$$

...GULF COAST WEATHER...

CITY           SKY/WX    TMP DP  RH WIND       PRES   REMARKS
GULFPORT       CLOUDY    77  72  84 S13G21    29.70R
PASCAGOULA     CLOUDY    76  71  85 S13G21    29.72R
MOBILE         CLOUDY    75  70  84 S14       29.73R
GULF SHORES    MOCLDY    73  73 100 SE15G21   29.75F
PENSACOLA      CLOUDY    75  72  90 S16       29.75F
DESTIN         LGT RAIN  76  76 100 SE10      29.79
PANAMA CITY    CLOUDY    75  72  88 S20G25    29.82F
APPALACHICOLA  CLOUDY    75  73  93 S16       29.84S
$$




USA.gov is the U.S. government's official web portal to all federal, state and local government web resources and services.